Regional Weather Roundup
Issued by NWS

Home | Current Version | Previous Version | Graphics & Text | Print | Product List | Glossary On
Versions: 1 2 3 4 5 6 7 8 9 10 11 12 13 14 15 16 17 18 19 20 21 22 23 24 25 26 27 28 29 30 31 32 33 34 35 36 37 38 39 40 41 42 43 44 45 46 47 48 49 50
000
ASUS43 KDMX 010308
RWRIA

WEATHER ROUNDUP FOR IOWA
NATIONAL WEATHER SERVICE DES MOINES IA
1000 PM CDT FRI SEP 30 2016

NOTE: "FAIR" INDICATES FEW OR NO CLOUDS BELOW 12,000 FEET WITH NO
SIGNIFICANT WEATHER AND/OR OBSTRUCTIONS TO VISIBILITY.

* - THESE STATIONS ARE NOT NWS STATIONS...THUS NOT UNDER NWS
QUALITY CONTROL.  THEY ALSO DO NOT REPORT WEATHER SUCH
AS PRECIPITATION OR FOG.

IAZ001>003-012>014-020>022-031>034-043>046-010400-
   NORTHWEST IOWA

CITY           SKY/WX    TMP DP  RH WIND       PRES   REMARKS
CARROLL *      CLOUDY    63  55  77 CALM      30.17R
CHEROKEE *     CLEAR     57  54  89 E3        30.17S
DENISON *      MOCLDY    57  54  88 CALM      30.15S
LE MARS *      CLEAR     52  48  87 CALM      30.17S
SHELDON *      PTCLDY    52  50  93 E5        30.17S
SIOUX CITY     CLOUDY    54  49  83 S3        30.16R
SPENCER        CLEAR     56  51  84 NE6       30.18S
STORM LAKE *   PTCLDY    59  54  82 SE5       30.18R
$$

IAZ055>058-069>071-079>083-090>094-010400-
   SOUTHWEST IOWA

CITY           SKY/WX    TMP DP  RH WIND       PRES   REMARKS
ATLANTIC *     CLOUDY    57  55  94 CALM      30.16S
AUDUBON *      MOCLDY    57  54  88 CALM      30.17S
CLARINDA *       N/A     59  54  82 MISG      30.16F
COUNCIL BLFS * CLOUDY    57  54  88 SE6       30.16R
CRESTON *      CLOUDY    61  55  82 CALM      30.17R
HARLAN  *      CLOUDY    59  54  82 CALM      30.19S
LAMONI         CLOUDY    60  56  86 NE3       30.15R
RED OAK *      PTCLDY    57  54  88 CALM      30.15F FOG
SHENANDOAH *   CLEAR     55  54  94 NE3       30.16S
$$

IAZ047>049-059>061-072>074-084-010400-
   CENTRAL IOWA

CITY           SKY/WX    TMP DP  RH WIND       PRES   REMARKS
AMES           CLOUDY    61  57  87 NE3       30.16F
ANKENY *         N/A    N/A N/A N/A MISG        N/A
BOONE *        CLOUDY    61  55  82 NE5       30.16S
CHARITON *       N/A     61  57  88 N5        30.14F
DES MOINES     DRIZZLE   63  55  75 NE8       30.15F
GRINNELL*      CLOUDY    60  55  85 N5        30.16S
KNOXVILLE *    CLOUDY    61  55  82 NE3       30.13F
MARSHALLTOWN   CLOUDY    60  57  89 NE5       30.16S
NEWTON *       CLOUDY    61  55  82 NE6       30.15S
PELLA *        MOCLDY    60  56  84 NE3       30.16S
PERRY *        CLOUDY    62  57  85 NE3       30.16S
$$

IAZ004>006-015-016-023>025-035-036-010400-
   NORTH CENTRAL IOWA

CITY           SKY/WX    TMP DP  RH WIND       PRES   REMARKS
ALGONA *       CLOUDY    63  55  77 SE5       30.19S
CLARION *      CLOUDY    61  57  88 E5        30.18S
ESTHERVILLE    CLOUDY    62  54  74 NE6       30.18S
FORT DODGE *   CLOUDY    61  54  77 NE5       30.19R
MASON CITY     CLOUDY    60  54  80 CALM      30.20S
FOREST CITY *  CLOUDY    61  54  77 CALM      30.19S
WEBSTER CITY * CLOUDY    61  57  88 E6        30.16S
IOWA FALLS *   CLOUDY    61  56  84 CALM      30.18F
$$

IAZ007>011-017>019-026>030-037>042-050>054-066-010400-
   NORTHEAST IOWA

CITY           SKY/WX    TMP DP  RH WIND       PRES   REMARKS
CEDAR RAPIDS   CLOUDY    61  59  93 NE12      30.13S
CHARLES CITY * CLOUDY    61  57  88 NE3       30.18S
CLINTON *      CLOUDY    60  58  92 N8        30.11F
DECORAH *      CLOUDY    59  57  94 NE8       30.17S
DUBUQUE        CLOUDY    59  58  96 N8        30.14F
MONTICELLO *   CLOUDY    61  57  88 N5        30.13F
OELWEIN *      CLOUDY    59  57  94 NE7       30.17S
WATERLOO       CLOUDY    58  55  90 N3        30.15S
$$

IAZ064-065-067-068-078-010400-
   EAST CENTRAL IOWA

CITY           SKY/WX    TMP DP  RH WIND       PRES   REMARKS
DAVENPORT      CLOUDY    60  58  92 N8        30.11F
IOWA CITY      CLOUDY    62  57  83 N7        30.14S
MT. PLEASANT * CLOUDY    62  62 100 N8        30.11S
MUSCATINE *    CLOUDY    61  57  88 N8        30.11S
QUAD CITIES    CLOUDY    62  59  90 N6        30.10S
$$

IAZ062-063-075>077-085>089-095>099-010400-
   SOUTHEAST IOWA

CITY           SKY/WX    TMP DP  RH WIND       PRES   REMARKS
BURLINGTON     CLOUDY    60  60 100 N9        30.09F
FAIRFIELD *    CLOUDY    61  55  82 N5        30.12S
FORT MADISON * CLOUDY    61  57  88 N6        30.11S
KEOKUK *       CLOUDY    61  59  94 NW6       30.09S
OSKALOOSA *    CLOUDY    60  56  85 N5        30.14S
OTTUMWA        CLOUDY    61  55  81 NW5       30.13F
WASHINGTON *     N/A    N/A N/A N/A MISG        N/A
$$

ABBREVIATIONS USED IN REMARKS
   TC - TEMPERATURES IN CELSIUS
  WCI - WIND CHILL INDEX
   HX - HEAT INDEX
  VSB - VISIBILITY
$$




USA.gov is the U.S. government's official web portal to all federal, state and local government web resources and services.